Weather History for Mackall AAF, NC

Change the Weather History Date:

Wednesday, January 16, 2013

  Actual Average Record
Temperature  
Mean Temperature 52 °F -  
Max Temperature 55 °F 52 °F 62 °F (2007)
Min Temperature 48 °F 30 °F 12 °F (2009)
Degree Days  
Heating Degree Days 14    
Growing Degree Days 2 (Base 50)    
Moisture  
Dew Point 51 °F    
Average Humidity 98    
Maximum Humidity 100    
Minimum Humidity 94    
Precipitation  
Precipitation 0.19 in - - ()
Sea Level Pressure  
Sea Level Pressure 30.02 in    
Wind  
Wind Speed 4 mph (NNE)    
Max Wind Speed 13 mph    
Max Gust Speed -    
Visibility 5 miles    
Events Fog , Rain    
Averages and records for this station are not official NWS values.
T = Trace of Precipitation, MM = Missing Value Source: NWS Daily Summary

Daily Weather History Graph

Daily Weather History Graph

Search for Another Location

Airport:

Trip Planner

Search our weather history database for the weather conditions in past years. The results will help you decide how hot, cold, wet, or windy it might be!

Date:

Astronomy

Jan. 16, 2013 Rise Set
Actual Time 7:25 AM EST 5:30 PM EST
Civil Twilight 6:57 AM EST 5:58 PM EST
Nautical Twilight 6:26 AM EST 6:29 PM EST
Astronomical Twilight 5:56 AM EST 6:59 PM EST
Moon 10:15 AM EST (1/16) 11:04 PM EST (1/16)
Length of Visible Light 11h 00m
Length of Day
10h 05m
Waxing Crescent, 28% of the Moon is Illuminated
Jan 16
Waxing Crescent
Jan 18
First Quarter
Jan 26
Full
Feb 3
Last Quarter
Feb 10
New

Hourly Weather History & Observations

Time (EST) Temp. Dew Point Humidity Pressure Visibility Wind Dir Wind Speed Gust Speed Precip Events Conditions
12:55 AM 49.8 °F 49.3 °F 98% 30.04 in 0.5 mi East 3.5 mph - N/A Fog Fog
1:55 AM 49.8 °F 49.5 °F 99% 30.05 in 0.5 mi ENE 3.5 mph - N/A Fog Fog
2:39 AM 50.0 °F 50.0 °F 100% 30.06 in 0.5 mi North 3.5 mph - N/A Fog , Rain Light Rain
2:55 AM 50.4 °F 49.8 °F 98% 30.05 in 0.5 mi North 3.5 mph - N/A Fog , Rain Light Rain
3:55 AM 50.7 °F 50.2 °F 98% 30.04 in 0.5 mi NW 4.6 mph - N/A Fog Fog
4:09 AM 50.0 °F 50.0 °F 100% 30.04 in 0.5 mi NW 3.5 mph - N/A Fog , Rain Light Rain
4:25 AM 50.0 °F 50.0 °F 100% 30.03 in 1.0 mi NNW 3.5 mph - N/A Fog , Rain Light Rain
4:29 AM 50.0 °F 50.0 °F 100% 30.03 in 1.2 mi Variable 2.3 mph - N/A Fog , Rain Light Rain
4:34 AM 50.0 °F 50.0 °F 100% 30.02 in 1.5 mi NNE 4.6 mph - N/A Rain Light Rain
4:36 AM 50.0 °F 50.0 °F 100% 30.02 in 1.8 mi NNE 3.5 mph - N/A Rain Light Rain
4:37 AM 50.0 °F 50.0 °F 100% 30.02 in 2.0 mi NNE 3.5 mph - N/A Rain Light Rain
4:40 AM 50.0 °F 50.0 °F 100% 30.02 in 2.5 mi NE 2.3 mph - N/A Rain Light Rain
4:42 AM 50.0 °F 50.0 °F 100% 30.02 in 3.0 mi NE 3.5 mph - N/A Rain Light Rain
4:55 AM 50.2 °F 49.8 °F 99% 30.02 in 5.0 mi Variable 2.3 mph - 0.02 in Rain Light Rain Showers
4:58 AM 50.0 °F 50.0 °F 100% 30.01 in 6.0 mi Variable 2.3 mph - N/A   Mostly Cloudy
5:55 AM 50.2 °F 49.6 °F 98% 30.02 in 6.0 mi North 3.5 mph - N/A   Overcast
6:48 AM 50.0 °F 48.2 °F 94% 30.03 in 2.5 mi North 4.6 mph - N/A   Overcast
6:53 AM 50.0 °F 48.2 °F 94% 30.03 in 1.8 mi NNW 4.6 mph - N/A   Overcast
6:55 AM 49.1 °F 48.6 °F 98% 30.03 in 1.8 mi North 4.6 mph - N/A   Overcast
6:56 AM 50.0 °F 48.2 °F 94% 30.03 in 1.5 mi North 4.6 mph - N/A   Overcast
6:58 AM 50.0 °F 48.2 °F 94% 30.03 in 1.2 mi North 4.6 mph - N/A   Overcast
7:01 AM 48.2 °F 48.2 °F 100% 30.03 in 1.0 mi North 4.6 mph - N/A Fog Fog
7:04 AM 50.0 °F 48.2 °F 94% 30.03 in 0.8 mi North 5.8 mph - N/A Fog Fog
7:55 AM 48.9 °F 48.6 °F 99% 30.04 in 0.2 mi NNE 3.5 mph - N/A Fog Fog
8:55 AM 49.1 °F 48.6 °F 98% 30.05 in 0.2 mi NNE 3.5 mph - N/A Fog Fog
9:55 AM 49.8 °F 49.5 °F 99% 30.05 in 0.2 mi NE 4.6 mph - N/A Fog Fog
10:55 AM 52.2 °F 51.6 °F 98% 30.04 in 0.5 mi Variable 2.3 mph - N/A Fog Fog
11:12 AM 53.6 °F 53.6 °F 100% 30.03 in 0.8 mi Variable 2.3 mph - N/A   Mostly Cloudy
11:13 AM 53.6 °F 53.6 °F 100% 30.03 in 1.0 mi SSE 2.3 mph - N/A   Mostly Cloudy
11:16 AM 53.6 °F 53.6 °F 100% 30.02 in 1.2 mi South 1.2 mph - N/A   Mostly Cloudy
11:18 AM 53.6 °F 53.6 °F 100% 30.02 in 1.5 mi Variable 1.2 mph - N/A   Mostly Cloudy
11:19 AM 53.6 °F 53.6 °F 100% 30.02 in 1.8 mi Variable 1.2 mph - N/A   Mostly Cloudy
11:20 AM 53.6 °F 53.6 °F 100% 30.02 in 2.0 mi Variable 1.2 mph - N/A   Mostly Cloudy
11:21 AM 53.6 °F 53.6 °F 100% 30.02 in 2.5 mi ESE 1.2 mph - N/A   Mostly Cloudy
11:23 AM 53.6 °F 53.6 °F 100% 30.02 in 3.0 mi Variable 1.2 mph - N/A   Mostly Cloudy
11:53 AM 55.4 °F 55.4 °F 100% 30.02 in 5.0 mi NNW 3.5 mph - N/A Rain Light Rain
11:55 AM 55.4 °F 54.7 °F 97% 30.02 in 6.0 mi NW 5.8 mph - N/A   Light Drizzle
12:13 PM 55.4 °F 55.4 °F 100% 30.01 in 6.0 mi NNW 6.9 mph - N/A   Mostly Cloudy
12:32 PM 55.4 °F 55.4 °F 100% 30.01 in 8.0 mi NNW 9.2 mph - N/A   Mostly Cloudy
12:37 PM 55.4 °F 55.4 °F 100% 30.01 in 8.0 mi NW 8.1 mph - N/A   Mostly Cloudy
12:42 PM 55.4 °F 53.6 °F 94% 30.01 in 8.0 mi NNW 9.2 mph - N/A   Mostly Cloudy
12:55 PM 54.5 °F 54.1 °F 99% 30.01 in 8.0 mi NNW 6.9 mph - N/A   Overcast
1:10 PM 55.4 °F 53.6 °F 94% 30.01 in 7.0 mi North 6.9 mph - N/A Rain Light Rain
1:55 PM 50.9 °F 49.8 °F 96% 30.01 in 8.0 mi North 12.7 mph - 0.00 in   Light Drizzle
2:55 PM 48.7 °F 48.2 °F 98% 30.03 in 3.0 mi North 6.9 mph - 0.03 in Rain Light Rain
2:57 PM 48.2 °F 48.2 °F 100% 30.03 in 3.0 mi North 5.8 mph - N/A Rain Light Rain
3:02 PM 48.2 °F 48.2 °F 100% 30.03 in 4.0 mi NNW 6.9 mph - N/A Rain Light Rain
3:38 PM 48.2 °F 48.2 °F 100% 30.03 in 2.5 mi NNW 5.8 mph - N/A Rain Light Rain
3:46 PM 48.2 °F 48.2 °F 100% 30.03 in 3.0 mi North 3.5 mph - N/A Rain Light Rain
3:52 PM 48.2 °F 48.2 °F 100% 30.02 in 6.0 mi NNE 4.6 mph - N/A Rain Light Rain
3:55 PM 48.6 °F 48.2 °F 99% 30.02 in 6.0 mi NE 4.6 mph - 0.02 in Rain Light Rain
3:57 PM 48.2 °F 48.2 °F 100% 30.02 in 6.0 mi NE 3.5 mph - N/A Rain Light Rain
4:27 PM 50.0 °F 48.2 °F 94% 30.04 in 10.0 mi Variable 1.2 mph - N/A   Light Drizzle
4:38 PM 50.0 °F 48.2 °F 94% 30.03 in 6.0 mi Variable 1.2 mph - N/A   Light Drizzle
4:47 PM 50.0 °F 50.0 °F 100% 30.03 in 10.0 mi ESE 2.3 mph - N/A   Overcast
4:55 PM 49.6 °F 49.3 °F 99% 30.02 in 10.0 mi SE 3.5 mph - 0.00 in   Mostly Cloudy
5:07 PM 50.0 °F 50.0 °F 100% 30.01 in 10.0 mi ESE 3.5 mph - N/A   Mostly Cloudy
5:11 PM 50.0 °F 50.0 °F 100% 30.01 in 10.0 mi SE 3.5 mph - N/A   Mostly Cloudy
5:55 PM 50.4 °F 49.8 °F 98% 30.01 in 10.0 mi SSE 3.5 mph - N/A   Mostly Cloudy
6:25 PM 50.0 °F 50.0 °F 100% 30.02 in 10.0 mi SSW 1.2 mph - N/A Rain Light Rain
6:49 PM 51.8 °F 50.0 °F 94% 30.01 in 10.0 mi ESE 2.3 mph - N/A   Overcast
6:55 PM 51.1 °F 50.4 °F 97% 30.02 in 10.0 mi NE 2.3 mph - N/A   Overcast
7:39 PM 51.8 °F 50.0 °F 94% 30.00 in 10.0 mi NNE 5.8 mph - N/A Rain Light Rain
7:55 PM 51.3 °F 50.7 °F 98% 30.01 in 10.0 mi Variable 2.3 mph - N/A Rain Light Rain Showers
7:57 PM 51.8 °F 50.0 °F 94% 30.01 in 10.0 mi SW 1.2 mph - N/A   Mostly Cloudy
8:55 PM 51.8 °F 51.1 °F 97% 30.01 in 10.0 mi SSE 2.3 mph - N/A   Mostly Cloudy
9:51 PM 51.8 °F 51.8 °F 100% 30.02 in 10.0 mi South 5.8 mph - N/A Rain Light Rain
9:55 PM 52.5 °F 51.6 °F 97% 30.03 in 10.0 mi South 5.8 mph - N/A   Light Drizzle
10:02 PM 51.8 °F 51.8 °F 100% 30.03 in 10.0 mi South 5.8 mph - N/A   Light Drizzle
10:07 PM 53.6 °F 51.8 °F 94% 30.02 in 10.0 mi SSE 4.6 mph - N/A Rain Light Rain Showers
10:08 PM 53.6 °F 51.8 °F 94% 30.02 in 10.0 mi SSE 4.6 mph - N/A Rain Light Rain Showers
10:32 PM 53.6 °F 51.8 °F 94% 30.01 in 7.0 mi SSW 3.5 mph - N/A Rain Rain Showers
10:42 PM 53.6 °F 51.8 °F 94% 30.01 in 5.0 mi Variable 2.3 mph - N/A Rain Rain Showers
10:47 PM 53.6 °F 51.8 °F 94% 30.01 in 5.0 mi SSW 2.3 mph - N/A Rain Rain Showers
10:55 PM 53.2 °F 52.2 °F 96% 30.01 in 4.0 mi ENE 1.2 mph - 0.10 in Rain Rain Showers
10:57 PM 53.6 °F 51.8 °F 94% 30.01 in 4.0 mi ENE 1.2 mph - N/A Rain Rain Showers
11:29 PM 53.6 °F 51.8 °F 94% 30.00 in 10.0 mi East 2.3 mph - N/A   Mostly Cloudy
11:55 PM 54.0 °F 52.9 °F 96% 30.00 in 10.0 mi NW 2.3 mph - 0.02 in   Mostly Cloudy